Find KZ-11 Y8 Stage 3

NORAD ID: 67071 Int'l Des: 2025-296 Owner: EXPACE Country: CN Debris
LEO

Re-entered — Dec 25, 2025

3D地球を読み込み中...

About KZ-11 Y8 Stage 3

KZ-11 Y8 Stage 3 (NORAD 67071) is a satellite launched Dec 13, 2025 by EXPACE of CN. It re-entered the atmosphere on Dec 25, 2025. with a mass of 1000.00 kg.

高度履歴

Loading altitude history...

軌道要素

1 67071U 25296C 25358.32930102 .10629896 77682-5 39091-3 0 9999
2 67071 41.3001 37.0779 0331361 35.4881 326.7526 15.73922215 1695
Epoch: Dec 24, 2025 • Age: 4051 hours

現在のステータス

Position data unavailable
打ち上げ日 Dec 13, 2025
運用期間 0.4 years
落下予定日 Dec 25, 2025
タイプ debris

技術仕様

分類 Launch Vehicle Stage
質量 1000.00 kg
乾燥質量 1000.00 kg
総質量 1000.00 kg
長さ 2.50 m
直径 2.20 m
スパン 2.50 m
形状 Cyl
製造者 CASIC
フェーズステータス Unknown Transfer Status
所有者/国 EXPACE/CN

Most Searched